UAL1411 PHNL-KSFO

Flight info

Callsign UAL1411
Flight time N/A
Altitude 35000
Route MKK5 KOLEA CLUTS R465 CORTT/N0482F370 R465 CINNY PIRAT3
Aircraft B77W/H-SDE1E2E3FGHIJ2J3J4J5M1RWXY/LB1D1

Departure

Time 2026-05-04 23:57
Airport Daniel K. Inouye International Airport (PHNL)

Arrival

Time N/A
Airport San Francisco International Airport (KSFO)
Time Latitude Longitude Altitude Speed Heading
2026-05-04 23:27 21.32868 -157.91649 47 ft 0 kts
2026-05-04 23:42 21.32856 -157.91649 45 ft 2 kts
2026-05-04 23:42 21.32840 -157.91649 44 ft 2 kts
2026-05-04 23:42 21.32825 -157.91649 43 ft 2 kts
2026-05-04 23:43 21.32810 -157.91649 41 ft 2 kts
2026-05-04 23:43 21.32795 -157.91650 40 ft 2 kts
2026-05-04 23:43 21.32785 -157.91650 40 ft 2 kts 353°
2026-05-04 23:43 21.32773 -157.91643 39 ft 2 kts 293°
2026-05-04 23:44 21.32771 -157.91634 40 ft 1 kts 269°
2026-05-04 23:44 21.32771 -157.91631 40 ft 0 kts 270°
2026-05-04 23:47 21.32771 -157.91632 40 ft 2 kts 270°
2026-05-04 23:47 21.32772 -157.91679 39 ft 9 kts 270°
2026-05-04 23:47 21.32772 -157.91780 38 ft 15 kts 270°
2026-05-04 23:48 21.32773 -157.91919 37 ft 20 kts 270°
2026-05-04 23:48 21.32773 -157.92084 41 ft 21 kts 268°
2026-05-04 23:48 21.32773 -157.92242 49 ft 21 kts 271°
2026-05-04 23:48 21.32774 -157.92395 57 ft 20 kts 270°
2026-05-04 23:49 21.32774 -157.92549 55 ft 18 kts 270°
2026-05-04 23:49 21.32767 -157.92711 47 ft 24 kts 256°
2026-05-04 23:49 21.32741 -157.92903 43 ft 28 kts 269°
2026-05-04 23:49 21.32741 -157.93115 42 ft 21 kts 270°
2026-05-04 23:50 21.32743 -157.93280 40 ft 23 kts 271°
2026-05-04 23:50 21.32742 -157.93463 38 ft 26 kts 270°
2026-05-04 23:50 21.32742 -157.93625 38 ft 21 kts 270°
2026-05-04 23:50 21.32742 -157.93796 38 ft 23 kts 270°
2026-05-04 23:51 21.32743 -157.93964 39 ft 20 kts 269°
2026-05-04 23:51 21.32701 -157.94075 39 ft 16 kts 223°
2026-05-04 23:51 21.32644 -157.94115 39 ft 4 kts 209°
2026-05-04 23:51 21.32635 -157.94121 39 ft 0 kts 209°
2026-05-04 23:52 21.32622 -157.94128 40 ft 5 kts 209°
2026-05-04 23:52 21.32574 -157.94157 40 ft 9 kts 209°
2026-05-04 23:52 21.32502 -157.94200 41 ft 13 kts 209°
2026-05-04 23:52 21.32411 -157.94255 43 ft 16 kts 209°
2026-05-04 23:53 21.32302 -157.94321 44 ft 19 kts 209°
2026-05-04 23:53 21.32175 -157.94395 44 ft 22 kts 209°
2026-05-04 23:53 21.32032 -157.94481 45 ft 25 kts 209°
2026-05-04 23:53 21.31902 -157.94557 43 ft 21 kts 209°
2026-05-04 23:54 21.31763 -157.94635 40 ft 23 kts 203°
2026-05-04 23:54 21.31591 -157.94649 34 ft 27 kts 173°
2026-05-04 23:54 21.31391 -157.94623 27 ft 29 kts 173°
2026-05-04 23:54 21.31185 -157.94595 21 ft 29 kts 172°
2026-05-04 23:55 21.30995 -157.94571 21 ft 20 kts 176°
2026-05-04 23:55 21.30861 -157.94568 22 ft 18 kts 179°
2026-05-04 23:55 21.30681 -157.94482 21 ft 15 kts 94°
2026-05-04 23:56 21.30681 -157.94461 21 ft 0 kts 90°
2026-05-04 23:56 21.30681 -157.94452 21 ft 8 kts 90°
2026-05-04 23:56 21.30681 -157.94138 21 ft 80 kts 90°
2026-05-04 23:56 21.30681 -157.93266 21 ft 152 kts 89°
2026-05-04 23:57 21.30674 -157.91957 368 ft 182 kts 89°
2026-05-04 23:57 21.30671 -157.90626 1291 ft 183 kts 88°
2026-05-04 23:57 21.30649 -157.89212 1977 ft 198 kts 96°
2026-05-04 23:57 21.30038 -157.87804 2534 ft 223 kts 130°
2026-05-04 23:58 21.28625 -157.86861 3160 ft 247 kts 160°
2026-05-04 23:58 21.26962 -157.86375 3891 ft 263 kts 164°
2026-05-04 23:58 21.25067 -157.85867 4685 ft 271 kts 164°
2026-05-04 23:58 21.23221 -157.85364 4938 ft 273 kts 164°
2026-05-04 23:59 21.21226 -157.84760 5277 ft 298 kts 154°
2026-05-04 23:59 21.19590 -157.83406 6905 ft 290 kts 127°
2026-05-04 23:59 21.18664 -157.81435 8524 ft 282 kts 103°